User: anonymous   Login
Location: Unspecified
(0.0000°N, 0.0000°E)
Time: 19:47:25
(UTC+00:00)
Language:

Eole - Orbit

View from above orbital plane
View from above orbital plane
View from above satellite
View from above satellite

Ground track
Ground track

The orbit data is extracted from the following two-line orbital elements,

1  5435U 71071A   17268.89534773 -.00000003 +00000-0 +42600-4 0  9993
2  5435 050.1402 129.2947 0110634 113.0325 248.2315 14.55031479411601
Epoch (UTC): 25 September 2017 21:29:18
Eccentricity: 0.0110634
inclination: 50.1402°
perigee height: 631 km
apogee height: 787 km
right ascension of ascending node: 129.2947°
argument of perigee: 113.0325°
revolutions per day: 14.55031479
mean anomaly at epoch: 248.2315°
orbit number at epoch: 41160

The dashed part of the orbit path shows where the satellite is in the earth's shadow,  

DLR